Regional Weather Roundup
Issued by NWS

Home | Current Version | Previous Version | Text Only | Print | Product List | Glossary On
Versions: 1 2 3 4 5 6 7 8 9 10 11 12 13 14 15 16 17 18 19 20 21 22 23 24 25 26 27 28 29 30 31 32 33 34 35 36 37 38 39 40 41 42 43 44 45 46 47 48 49 50
000
ASUS43 KFSD 211202
RWRSD

WEATHER ROUNDUP FOR SOUTH DAKOTA
NATIONAL WEATHER SERVICE SIOUX FALLS SD
700 AM CDT SAT OCT 21 2017

NOTE: "FAIR" INDICATES FEW OR NO CLOUDS BELOW 12,000 FEET WITH NO
SIGNIFICANT WEATHER AND/OR OBSTRUCTIONS TO VISIBILITY.


SDZ001>005-009-010-012>017-211300-
NORTHWEST AND NORTH CENTRAL SOUTH DAKOTA

CITY           SKY/WX    TMP DP  RH WIND       PRES   REMARKS
BUFFALO          N/A     46  28  49 W25       29.58R
MOBRIDGE       CLOUDY    54  40  59 NW21G28   29.52R
$$

SDZ012>016-024>037-041>051-057-063-072>074-211300-
SOUTHWEST AND SOUTH CENTRAL SOUTH DAKOTA

CITY           SKY/WX    TMP DP  RH WIND       PRES   REMARKS
RAPID CTY ARPT CLOUDY    49  28  44 NW28      29.66R
PIERRE         CLOUDY    54  41  61 NW23G38   29.54R
CUSTER         CLOUDY    38  23  55 NW12G22   29.71R
ELLSWORTH AFB  CLOUDY    50  26  39 NW26G36   29.65R
PHILIP         LGT RAIN  46  45  96 NW26G37   29.61R
PINE RIDGE     CLOUDY    48  41  76 NW3       29.70R
SPEARFISH      FAIR      45  25  45 W17G25    29.72R
WINNER         FAIR      57  44  62 NW18G30   29.54R
$$

SDZ004>011-016>023-039-040-211300-
NORTHEAST SOUTH DAKOTA

CITY           SKY/WX    TMP DP  RH WIND       PRES   REMARKS
ABERDEEN       CLEAR     57  51  80 W9        29.44R
WATERTOWN      CLOUDY    61  58  90 S14       29.46F
BROOKINGS      CLOUDY    63  58  83 S12       29.50F
SISSETON         N/A     65  58  78 S14G24    29.43R
$$

SDZ017-020-022-023-036>040-048>070-211300-
SOUTHEAST SOUTH DAKOTA

CITY           SKY/WX    TMP DP  RH WIND       PRES   REMARKS
SIOUX FALLS    MOCLDY    65  60  84 S17       29.51S
HURON          PTCLDY    61  57  87 S9G18     29.44R
CHAMBERLAIN    CLEAR     59  46  62 NW17G26   29.51R
MITCHELL       CLOUDY    63  58  83 S10       29.45S
YANKTON        MOCLDY    68  61  78 SE13      29.49F
$$

ABBREVIATIONS USED IN REMARKS
   TC - TEMPERATURE IN CELSIUS
  WCI - WIND CHILL INDEX
   HX - HEAT INDEX
  VSB - VISIBILITY




USA.gov is the U.S. government's official web portal to all federal, state and local government web resources and services.